Volver al catálogo

FENGYUN 1C DEB

ActivoSSO
NORAD 31412·DEBRIS·🇨🇳 China

Lanzado May 10, 1999 desde Taiyuan Satellite Launch Center

Loading…

Próximos Pases (próximas 24 horas)

TLE

ActualizadoSource: Space-Track

Época: Sep 11, 2026, 06:37 UTC

1 31412U 99025BSY 26254.27578025  .00001591  00000-0  87932-3 0  9999
2 31412  98.5569 190.1692 0080760 280.1243  79.0827 14.11150026648343

Sigue FENGYUN 1C DEB en tiempo real con AllMySat

Download on the App Store